STARLINK-33672, 63326

Orbit data source: Space-Track

STARLINK-33672, 63326 is a payload satellite owned by SpaceX/Seattle (US) in LEO that was launched on Tue, 18 Mar 2025 UTC via an FALCON 9 launch vehicle from the Air Force Eastern Test Range (AFETR). Payload-class satellites include a variety of spacecraft equipped with specific instruments for various scientific and technological missions. These include communications satellites like Starlink; space stations such as the ISS; scientific satellites like the Hubble; Earth observation satellites from companies like Planet Labs, Umbra, and HawkEye 360; GPS; miniature CubeSats for education and research; and military/defense satellites.

Loading next visibility...
Identifier
63326, 2025-057V
Orbit
LEO
Country
Flag of USUS
Related business
Manufacturer
SpaceX/Seattle
Mission
Operational Commercial Communications
Bus & Motor
STARLINK V2MO, Unknown motor
Mass
575 kg wet, ~530 kg dry
Launch date (UTC)
2025-03-18 (9 months ago)
Launch vehicle
FALCON 9
Launch site
Air Force Eastern Test Range (AFETR)
Object type
Payload
Rocket body
Debris
Shape & HBR
Box + 2 Pan, 17.7 m
Radar Cross Section
36.964 m², Large (>1 m²)

Expand to show TLE details & history
Last TLE update: 11 hours ago

TLE from 11 hours ago
0 STARLINK-33672
1 63326U 25057V   25346.81359098  .00043514  00000-0  15802-2 0  9997
2 63326  43.0066 161.2335 0002896 292.2236  67.8308 15.27603782 42495
Epoch: 2025-12-12T19:31Z
TLE epoch observation values (Epoch: 2025-12-12T19:31:34.260Z)
Latitude
-0.00006°
Longitude
146.59087°
Altitude
482.005 km
Speed
7.627 km/s
True Right ascension
10h 44m 56s
True Declination
0° 00' 00"
Sunlit
Object was in daylight at epoch
Visualization orbit readout
Latitude
Unknown
Longitude
Unknown
Altitude
Unknown
Speed
Unknown
Apparent Right ascension
Unknown
Apparent Declination
Unknown
Sunlit
N/A
Visualization observer readout
Local Sidereal Time
05:23:01
Azimuth
Unknown
Elevation
Unknown
Doppler factor
Unknown
Orbital elements
Apogee altitude
486.91 km
Perigee altitude
482.934 km
Semi-major axis
6,863.059 km
Eccentricity
0.00029
Inclination
43.0066°
RAAN
161.2335°
Arg. of periapsis
292.2236°
True anomaly
67.86154°
Mean anomaly
67.8308°
Eccentric anomaly
67.84617°
Mean motion
3.81739 °/min
Orbital period
94.31 mins
BSTAR
0.0015802
Loading maneuver chart data...
Computing Atmospheric mass density...
Loading historical data...
Loading historical data...
Loading historical data...
Loading historical data...
Loading historical data...
Loading historical data...
Loading historical data...

Documentation

Showing up to 5 results
|